Dewpoint
55 56 57 59 59 61 62 64 65 65 66 67 68 68 69 69 70 70 70 71 71 71 71 72 71 72 71 70 69 67 66 65 66 65 64 63 63 64 64 64 64 64 64 64 64 64 66 66 66 66 66 67 66 66 66 68 69 70 69 69 69 69 67
55 56 57 59 59 61 62 64 65 65 66 67 67 68 69 70 71 71 71 71 71 71 71 71 71 71 70 69 68 66 64 64 65 66 64 64 65 64 65 65 64 64 64 64 64 64 66 66 66 66 66 67 67 66 66 66 67 68 68 68 68 67 68
54 56 57 59 60 61 62 63 64 65 66 66 67 68 69 70 71 71 71 71 71 71 71 71 71 70 70 69 67 65 64 64 65 65 64 63 64 63 64 65 65 64 64 65 64 64 66 65 66 66 65 65 66 67 66 66 66 67 67 67 67 67 67
53 55 57 59 60 61 62 63 64 65 66 66 67 67 69 70 71 71 71 71 71 72 71 71 70 70 69 68 66 65 64 64 64 64 63 63 64 64 64 65 65 64 64 64 64 64 65 66 65 66 68 66 65 66 66 66 65 66 66 66 66 66 67
52 54 56 58 59 60 62 63 64 65 65 66 67 68 68 69 70 71 71 71 71 71 71 71 70 70 69 67 66 65 64 64 64 64 64 64 65 64 64 64 64 64 64 64 65 66 66 66 65 65 65 66 65 65 65 65 65 66 66 66 66 66 66
51 53 55 57 58 60 61 62 63 64 64 65 66 67 68 68 70 70 71 71 71 72 72 70 69 69 68 66 66 65 65 64 64 65 64 64 64 64 64 64 64 64 63 64 65 64 65 65 65 65 65 65 65 65 65 65 65 65 66 65 66 66 66
51 52 54 56 58 59 60 61 62 64 64 65 66 67 67 68 69 70 71 71 71 71 71 70 69 68 67 66 65 66 65 64 64 64 64 64 64 64 64 64 65 64 64 64 64 64 64 64 65 65 65 65 66 65 65 65 65 65 65 65 65 65 65
51 52 53 55 56 58 59 60 62 63 64 65 65 66 67 68 69 69 70 70 71 70 70 69 68 68 67 66 65 65 65 64 64 64 64 64 64 64 63 63 64 64 64 63 63 64 63 64 64 65 65 64 64 65 65 64 64 64 64 65 65 65 65
50 52 53 54 55 57 58 60 61 62 64 64 65 66 67 67 68 69 70 70 70 70 70 69 68 67 67 66 65 65 65 64 64 64 64 63 63 63 63 63 64 64 63 63 62 64 64 63 64 64 64 64 64 64 64 64 64 64 64 64 64 64 64
50 51 53 54 55 57 58 59 61 63 63 64 64 65 66 67 68 69 69 70 70 70 69 69 68 67 66 66 65 65 65 64 64 64 63 62 63 62 62 62 63 64 63 63 62 62 64 64 64 64 64 63 64 63 63 63 64 64 64 64 64 64 64
50 52 52 53 55 57 59 59 61 62 63 63 64 64 66 67 68 68 69 70 69 69 69 69 68 66 66 65 64 64 64 64 64 64 63 62 62 62 62 62 62 63 63 63 62 62 63 64 64 63 63 63 63 63 63 63 63 64 64 64 64 64 64
51 51 52 53 56 58 58 60 61 61 62 63 64 64 65 67 67 68 69 69 69 69 69 68 67 66 66 65 65 65 64 64 64 63 63 63 62 62 62 62 63 62 63 63 62 63 63 63 63 64 63 63 63 63 63 63 63 64 64 64 64 64 64
50 51 53 53 55 57 59 60 60 61 62 63 63 64 65 66 67 68 69 69 69 69 68 68 67 67 66 65 64 65 65 64 64 64 63 64 63 63 62 62 62 62 62 63 63 62 62 63 63 64 64 64 64 64 63 64 64 64 64 64 64 64 64
58 53 54 55 56 57 58 59 60 61 62 63 63 64 65 66 67 68 68 68 69 68 67 67 67 66 66 66 65 65 65 65 66 65 65 64 64 63 63 63 63 64 64 64 64 63 62 62 63 63 64 64 64 63 64 64 63 64 64 64 65 64 64
51 51 52 53 55 57 58 59 60 61 62 63 63 64 65 66 67 68 68 68 69 68 67 67 67 66 66 65 65 65 66 66 66 65 65 64 63 63 63 63 63 64 64 64 63 64 63 63 62 62 62 63 63 63 63 63 63 63 63 64 64 64 64
50 51 51 52 54 56 58 59 60 61 62 63 64 64 65 66 67 67 68 68 68 68 67 67 67 66 66 65 66 66 66 66 66 65 65 64 63 63 63 63 63 63 63 62 62 62 63 62 62 60 60 61 61 62 62 62 62 63 62 62 63 63 63
50 50 51 53 55 57 58 59 60 61 62 63 64 64 65 66 67 67 67 67 67 67 67 66 66 66 64 65 65 66 66 66 65 65 64 64 64 63 63 63 63 63 63 62 62 62 62 63 61 60 60 60 60 60 61 61 61 61 60 60 62 63 63
50 52 53 54 56 57 58 59 60 61 61 62 63 64 65 66 67 67 67 67 67 67 67 66 66 65 65 65 66 66 66 65 64 64 65 64 64 64 64 63 63 63 63 62 62 62 62 62 61 61 60 60 60 60 61 60 61 59 59 60 60 62 64
52 53 54 55 57 58 58 59 60 61 61 62 63 64 65 66 67 67 67 67 67 68 67 66 65 65 65 66 66 66 66 64 63 64 65 65 64 64 63 64 64 63 62 62 62 62 62 61 61 61 61 61 60 60 60 60 60 58 58 59 59 60 62
54 54 55 56 57 57 58 59 60 62 62 63 64 65 66 67 67 67 68 68 68 67 67 67 65 65 65 66 66 66 65 64 64 64 65 65 65 64 64 64 63 63 62 62 62 62 61 61 61 61 61 61 61 61 61 61 60 58 57 57 58 58 60
55 56 56 56 57 58 59 60 60 62 63 63 65 66 67 67 68 68 68 68 67 67 67 67 66 66 65 65 65 65 65 65 64 63 64 65 64 64 64 64 63 63 63 62 62 62 61 61 61 61 62 61 61 61 61 62 59 57 57 56 56 57 59
54 55 56 57 58 59 60 60 60 61 62 65 65 66 67 67 68 67 67 67 67 67 67 66 66 65 65 64 65 65 64 63 63 62 62 65 65 64 63 63 63 63 63 63 62 62 62 62 61 61 61 61 61 61 61 62 58 57 57 56 56 57 60
54 56 57 59 59 60 63 63 62 62 63 64 65 65 67 68 68 67 67 66 66 66 66 66 65 65 65 64 64 64 64 64 62 61 63 64 64 64 64 64 64 63 63 62 62 61 61 61 61 62 61 61 62 62 62 62 60 56 55 55 56 57 61
56 59 59 60 62 62 64 65 66 66 64 64 64 65 66 67 67 67 66 65 65 65 65 65 65 65 65 64 64 64 64 64 63 63 64 64 64 64 63 63 63 63 63 62 62 61 61 61 62 62 62 61 62 62 62 61 60 56 54 54 55 58 60
53 56 58 60 61 63 64 65 66 66 65 65 64 65 66 66 66 65 64 64 64 64 65 65 65 65 65 64 64 65 65 66 65 65 64 64 64 63 63 62 63 63 63 63 62 62 62 63 62 62 63 63 62 63 63 61 59 56 54 53 54 57 60
54 54 55 57 62 63 66 67 66 65 64 64 64 64 65 65 65 65 64 63 64 64 64 65 65 65 66 66 65 66 66 66 65 65 64 64 64 64 63 63 63 63 62 63 63 63 63 64 63 62 63 63 63 62 63 62 62 62 57 54 54 54 60
66 66 66 66 66 67 66 65 65 65 65 64 63 63 63 64 64 64 63 63 63 63 64 65 65 65 66 65 66 66 66 66 66 65 65 64 63 63 62 63 63 64 63 63 64 64 63 63 63 63 63 63 62 62 62 62 63 63 57 55 53 54 55
67 68 68 68 67 66 65 64 63 63 62 62 62 62 62 63 63 63 63 62 62 63 64 64 64 65 64 64 64 65 65 66 66 66 65 64 63 62 63 64 64 64 64 64 64 63 63 63 63 63 63 63 62 62 63 63 63 63 59 56 53 52 52
65 66 66 66 66 66 64 63 63 62 62 62 62 62 62 63 63 63 63 62 62 63 63 64 64 64 64 64 64 64 64 64 64 64 63 63 63 62 63 64 64 64 64 63 63 63 62 63 63 62 62 62 62 62 62 62 62 61 62 57 54 52 51
64 64 65 65 65 65 64 63 63 62 62 62 62 62 62 62 63 63 62 61 62 63 63 63 63 64 64 64 64 63 63 64 64 64 64 64 64 63 63 63 64 63 63 63 63 63 62 62 62 61 61 61 62 61 61 61 61 60 59 60 57 52 48
63 63 63 64 65 65 64 63 63 63 62 62 62 61 62 62 63 63 61 61 63 63 62 62 63 63 63 62 62 63 63 64 65 64 64 64 64 64 63 63 63 63 63 63 62 62 62 62 61 61 61 61 60 61 60 59 60 60 60 59 59 52 48
62 63 63 64 64 65 64 64 63 63 62 62 62 62 63 62 63 63 61 62 63 62 62 62 62 62 62 62 62 62 63 64 64 65 65 65 65 65 64 63 63 63 62 62 62 62 61 61 61 61 60 60 60 60 60 59 59 60 60 60 60 55 51
61 62 62 63 64 65 64 64 63 63 63 62 62 63 63 62 63 63 62 63 62 62 62 62 62 63 62 62 62 64 64 63 63 64 64 64 64 64 64 64 63 63 62 62 62 61 61 60 60 60 60 59 59 59 59 59 60 59 59 60 60 58 54
61 61 62 62 64 64 63 63 63 64 63 63 63 63 63 63 63 63 62 62 62 62 62 63 62 62 61 62 63 63 63 63 65 64 63 63 63 63 62 62 62 62 61 61 61 60 60 60 59 59 59 59 59 59 59 59 59 59 58 59 59 58 56
60 61 62 62 63 64 62 63 64 63 63 63 63 63 63 63 62 61 62 62 62 62 62 62 63 63 62 62 63 64 64 64 65 64 63 61 56 52 51 55 57 58 57 53 53 58 59 59 59 59 59 60 60 59 59 59 58 59 53 58 55 56 55
60 60 61 61 62 62 63 64 63 63 63 63 63 63 62 62 61 61 59 59 61 62 63 64 64 64 64 63 63 63 64 63 62 61 61 59 57 54 51 48 43 47 56 54 49 45 42 45 57 55 57 58 59 58 59 58 58 45 42 44 46 47 47
60 60 60 61 62 62 62 62 63 63 63 62 63 62 62 61 60 59 59 61 62 63 63 64 64 64 64 64 63 63 63 63 61 60 59 58 57 56 55 52 49 40 42 46 46 42 38 38 39 42 44 54 57 52 46 45 41 39 39 39 39 39 39
60 61 61 62 61 61 61 62 62 62 62 62 62 61 61 60 60 60 60 61 63 63 62 61 60 59 60 62 63 65 64 62 61 60 58 57 56 56 56 55 54 52 42 40 42 41 39 38 38 39 40 43 46 51 51 44 40 39 39 39 39 39 38